Header for Extended Forecast Station List Page

Search by: ID | Name | Date | Parm | Value | Avg | % Avg
Sort by: ID | Name | Date | Parm | Value | Avg | % Avg

Enter search or view all records.

Click on id for station plot
#IDNameDateParmValueAvg% Avg
0LYDM8KOOTENAI-LIBBY DAM10-07-2019INFLOW (KAF)951956100
1LEOI1KOOTENAI-AT LEONIA10-07-2019DISCHARGE (KAF)20561639125
2BFEI1KOOTENAI-AT BONNERS FERRY10-07-2019STAGE (FT)MMM
3FCFM8NF FLATHEAD-NEAR COLUMBIA FALLS10-07-2019DISCHARGE (KAF)16119981
4WGCM8MF FLATHEAD-NEAR WEST GLACIER10-07-2019DISCHARGE (KAF)15817591
5HHWM8SF FLATHEAD-HUNGRY HORSE DAM10-07-2019INFLOW (KAF)23224694
6CFMM8FLATHEAD-AT COLUMBIA FALLS10-07-2019DISCHARGE (KAF)892120774
7DLGM8CLARK FORK-AT DEER LODGE10-07-2019DISCHARGE (KAF)6564101
8DRMM8CLARK FORK-NR DRUMMOND10-07-2019DISCHARGE (KAF)149MM
9RCCM8ROCK CREEK-NEAR CLINTON10-07-2019DISCHARGE (KAF)6251122
10BONM8BLACKFOOT-NEAR BONNER10-07-2019DISCHARGE (KAF)166138120
11ABOM8CLARK FORK-ABOVE MISSOULA10-07-2019DISCHARGE (KAF)393352112
12BITM8BITTERROOT-NEAR MISSOULA10-07-2019DISCHARGE (KAF)19523284
13BELM8CLARK FORK-BELOW MISSOULA10-07-2019DISCHARGE (KAF)592589100
14STRM8ST. REGIS-NEAR ST. REGIS10-07-2019DISCHARGE (KAF)203656
15SRGM8CLARK FORK-AT ST REGIS10-07-2019DISCHARGE (KAF)73676596
16KERM8FLATHEAD-KERR DAM10-07-2019INFLOW (KAF)1029150968
17NOXM8CLARK FORK-NOXON RAPIDS DAM10-07-2019INFLOW (KAF)2523345873
18CABI1CLARK FORK-CABINET GORGE DAM10-07-2019INFLOW (KAF)2765359977
19PRTI1PRIEST-NEAR PRIEST RIVER10-07-2019DISCHARGE (KAF)22223395
20ALFW1PEND OREILLE-ALBENI FALLS DAM10-07-2019INFLOW (KAF)3009417372
21HOPI1PEND OREILLE-PEND OREILLE LAKE NR HOPE10-07-2019LAKE ELEVATION (FT)MMM
22COEI1COEUR D ALENE-COEUR D ALENE LAKE10-07-2019INFLOW (KAF)33658358
23SPOW1SPOKANE-AT SPOKANE10-07-2019DISCHARGE (KAF)467MM
24LLKW1SPOKANE-AT LONGLAKE10-07-2019INFLOW (KAF)657103464
25SATI1ST MARIES-NEAR SANTA10-07-2019DISCHARGE (KAF)172861
26SJMI1ST JOE-AT ST MARIES10-07-2019STAGE (FT)MMM
27CIBW1COLUMBIA-AT INTL BOUNDARY10-07-2019DISCHARGE (KAF)18798MM
28LAUW1KETTLE-AT LAURIER10-07-2019DISCHARGE (KAF)266128208
29GCDW1COLUMBIA-GRAND COULEE DAM10-07-2019INFLOW (KAF)1981417361114
30CHJW1COLUMBIA-CHIEF JOSEPH DAM10-07-2019INFLOW (KAF)2080120817100
31TONW1OKANOGAN-NEAR TONASKET10-07-2019DISCHARGE (KAF)25328290
32PATW1METHOW-NEAR PATEROS10-07-2019DISCHARGE (KAF)124101123
33WELW1COLUMBIA-WELLS DAM10-07-2019INFLOW (KAF)2117521186100
34CHDW1CHELAN-LAKE CHELAN DAM10-07-2019INFLOW (KAF)242157154
35RRHW1COLUMBIA-ROCKY REACH DAM10-07-2019INFLOW (KAF)2175021702100
36ARDW1ENTIAT-NEAR ARDENVOIR10-07-2019DISCHARGE (KAF)2622116
37PESW1WENATCHEE-AT PESHASTIN10-07-2019DISCHARGE (KAF)26129090
38WANW1COLUMBIA-WANAPUM DAM10-07-2019INFLOW (KAF)2200419450113
39PRWW1COLUMBIA-PRIEST RAPIDS DAM10-07-2019INFLOW (KAF)2199819774111
40KEDW1YAKIMA-KEECHELUS LAKE10-07-2019INFLOW (KAF)495099
41KADW1KACHESS-KACHESS DAM10-07-2019INFLOW (KAF)324276
42EASW1YAKIMA-AT EASTON10-07-2019DISCHARGE (KAF)486475
43CLUW1CLE ELUM-CLE ELUM LAKE10-07-2019INFLOW (KAF)8510085
44TNAW1TEANAWAY-BELOW FORKS10-07-2019DISCHARGE (KAF)163445
45UMTW1YAKIMA-AT UMTANUM10-07-2019DISCHARGE (KAF)18824577
46BUDW1BUMPING-BUMPING LAKE DAM10-07-2019INFLOW (KAF)253474
47CLFW1NACHES-NEAR CLIFFDEL10-07-2019DISCHARGE (KAF)569856
48RILW1TIETON-RIMROCK LAKE NEAR RIMROCK10-07-2019INFLOW (KAF)536582
49NACW1NACHES-NEAR NACHES10-07-2019DISCHARGE (KAF)7270102
50PARW1YAKIMA-NEAR PARKER10-07-2019DISCHARGE (KAF)31841577
51KIOW1YAKIMA-AT KIONA10-07-2019DISCHARGE (KAF)47565572
52IPDI1HENRYS FORK-ISLAND PARK DAM10-07-2019INFLOW (KAF)121119102
53CHEI1FALL RIVER-NEAR CHESTER10-07-2019DISCHARGE (KAF)122112110
54ANTI1HENRYS FORK-AT ST. ANTHONY10-07-2019DISCHARGE (KAF)387340114
55TEAI1TETON-NEAR ST. ANTHONY10-07-2019DISCHARGE (KAF)113109103
56REXI1HENRYS FORK-AT REXBURG10-07-2019DISCHARGE (KAF)496431115
57JLKW4SNAKE-JACKSON LAKE AT DAM10-07-2019INFLOW (KAF)133112118
58JKSW4SNAKE-NEAR JACKSON10-07-2019DISCHARGE (KAF)333320104
59ALPW4SNAKE-NEAR ALPINE10-07-2019DISCHARGE (KAF)417407103
60PLDI1SF SNAKE-PALISADES DAM10-07-2019INFLOW (KAF)678657103
61HEII1SNAKE-NEAR HEISE10-07-2019DISCHARGE (KAF)639637100
62RIDI1WILLOW CREEK-RIRIE DAM10-07-2019INFLOW (KAF)128142
63SIFI1SNAKE-AB EAGLE ROCK NR IDAHO FALLS10-07-2019DISCHARGE (KAF)931825113
64SHYI1SNAKE-NEAR SHELLEY10-07-2019DISCHARGE (KAF)922802115
65SNAI1SNAKE-AT BLACKFOOT10-07-2019DISCHARGE (KAF)801714112
66BFTI1SNAKE-NEAR BLACKFOOT10-07-2019DISCHARGE (KAF)823771107
67PIHI1PORTNEUF-AT POCATELLO10-07-2019DISCHARGE (KAF)595999
68AFRI1SNAKE-AMERICAN FALLS RESERVOIR10-07-2019INFLOW (KAF)14971459103
69MILI1SNAKE-AT MILNER10-07-2019DISCHARGE (KAF)M505M
70HOTI1BRUNEAU-NEAR HOT SPRINGS10-07-2019DISCHARGE (KAF)3526133
71SWAI1SNAKE-BELOW SWAN FALLS10-07-2019DISCHARGE (KAF)1883253174
72HWRI1BIG LOST-AT HOWELL RANCH NEAR CHILLY10-07-2019DISCHARGE (KAF)2822124
73MACI1BIG LOST-MACKAY RESERVOIR NEAR MACKAY10-07-2019INFLOW (KAF)477695
74HALI1BIG WOOD-AT HAILEY10-07-2019DISCHARGE (KAF)4741116
75MAGI1BIG WOOD-MAGIC DAM10-07-2019INFLOW (KAF)3327120
76LWRI1LITTLE WOOD-LITTLE WOOD DAM10-07-2019INFLOW (KAF)2015131
77OWYO3OWYHEE-OWYHEE DAM10-07-2019INFLOW (KAF)8673117
78ARAI1SF BOISE-ANDERSON RANCH DAM10-07-2019INFLOW (KAF)8373113
79LUCI1BOISE-LUCKY PEAK DAM10-07-2019INFLOW (KAF)29MM
80BIGI1BOISE-AT GLENWOOD BRIDGE10-07-2019DISCHARGE (KAF)5839148
81PARI1BOISE-NEAR PARMA10-07-2019DISCHARGE (KAF)20421296
82WRMO3MALHEUR-WARM SPRINGS DAM10-07-2019INFLOW (KAF)171796
83BERO3MALHEUR-AGENCY VALLEY DAM10-07-2019INFLOW (KAF)131589
84BULO3BULLY CREEK-BULLY CREEK DAM10-07-2019INFLOW (KAF)32174
85CSDI1NF PAYETTE-CASCADE DAM10-07-2019INFLOW (KAF)919399
86DEDI1DEADWOOD-NEAR LOWMAN10-07-2019INFLOW (KAF)181998
87EMMI1PAYETTE-NEAR EMMETT10-07-2019DISCHARGE (KAF)26634776
88WSRI1WEISER-NEAR WEISER10-07-2019DISCHARGE (KAF)446567
89WEII1SNAKE-AT WEISER10-07-2019DISCHARGE (KAF)2744358377
90BRNI1SNAKE-BROWNLEE DAM10-07-2019INFLOW (KAF)2924367979
91WHBI1SALMON-AT WHITEBIRD10-07-2019DISCHARGE (KAF)1001109591
92TRYO3GRANDE RONDE-TROY10-07-2019DISCHARGE (KAF)20227175
93ANAW1SNAKE-NEAR ANATONE10-07-2019DISCHARGE (KAF)3981553972
94ORFI1CLEARWATER-AT OROFINO10-07-2019DISCHARGE (KAF)53662486
95DWRI1NF CLEARWATER-DWORSHAK DAM10-07-2019INFLOW (KAF)28447460
96SPDI1CLEARWATER-AT SPALDING10-07-2019DISCHARGE (KAF)993148567
97LGDW1SNAKE-LOWER GRANITE DAM10-07-2019INFLOW (KAF)4975723169
98LGSW1SNAKE-LITTLE GOOSE DAM10-07-2019INFLOW (KAF)4975728368
99LMNW1SNAKE-LOWER MONUMENTAL DAM10-07-2019INFLOW (KAF)5010733168
100IHDW1SNAKE-ICE HARBOR DAM10-07-2019INFLOW (KAF)5010725969
101TCHW1WALLA WALLA-NEAR TOUCHET10-07-2019DISCHARGE (KAF)10094106
102MCDW1COLUMBIA-MCNARY DAM10-07-2019INFLOW (KAF)275162888695
103GIBO3UMATILLA-NEAR GIBBON10-07-2019DISCHARGE (KAF)222977
104PDTO3UMATILLA-AT PENDLETON10-07-2019DISCHARGE (KAF)566487
105MYKO3MCKAY CREEK-NEAR PILOT ROCK10-07-2019DISCHARGE (KAF)1413105
106UMAO3UMATILLA-NEAR UMATILLA10-07-2019DISCHARGE (KAF)9666146
107MONO3NF JOHN DAY-AT MONUMENT10-07-2019DISCHARGE (KAF)618572
108SERO3JOHN DAY-AT SERVICE CK10-07-2019DISCHARGE (KAF)13116380
109JDAO3COLUMBIA-JOHN DAY DAM10-07-2019INFLOW (KAF)285722971296
110MODO3DESCHUTES-AT MOODY NR BIGGS10-07-2019DISCHARGE (KAF)13421343100
111TDAO3COLUMBIA-THE DALLES DAM10-07-2019INFLOW (KAF)293133293089
112PITW1KLICKITAT-NEAR PITT10-07-2019DISCHARGE (KAF)20825582
113HODO3HOOD-NEAR TUCKER BRIDGE10-07-2019DISCHARGE (KAF)242206117
114UNDW1WHITE SALMON-NEAR UNDERWOOD10-07-2019DISCHARGE (KAF)21521998
115BONO3COLUMBIA-BONNEVILLE DAM10-07-2019INFLOW (KAF)299623485986